Showing default

CAPELLA-18 (ACADIA), 67385

Orbit data source: Space-Track

CAPELLA-18 (ACADIA), 67385 is a payload satellite owned by Capella Space (US) in SSO that was launched on Sun, 11 Jan 2026 UTC via an FALCON 9 launch vehicle from the Air Force Western Test Range (AFWTR). Payload-class satellites include a variety of spacecraft equipped with specific instruments for various scientific and technological missions. These include communications satellites like Starlink; space stations such as the ISS; scientific satellites like the Hubble; Earth observation satellites from companies like Planet Labs, Umbra, and HawkEye 360; GPS; miniature CubeSats for education and research; and military/defense satellites.

Loading next visibility...
Identifier
67385, 2026-004Y
Orbit
SSO
Country
Flag of USUS
Related business
Manufacturer
Capella Space
Mission
Operational Commercial Radar Imaging
Bus & Motor
ACADIA, Unknown motor
Mass
180 kg wet, ~150 kg dry
Launch date (UTC)
2026-01-11 (4 months ago)
Launch vehicle
FALCON 9
Launch site
Air Force Western Test Range (AFWTR)
Object type
Payload
Rocket body
Debris
Shape & HBR
Box + 2 Pan + 1 Dish + 1 Rod, 1.2 m
Radar Cross Section
0.463 m²

Expand to show TLE details & history
Last TLE update: 20 hours ago

TLE from 20 hours ago
0 CAPELLA-18 (ACADIA)
1 67385U 26004Y   26145.99762618  .00001566  00000-0  18246-3 0  9999
2 67385  97.8003 144.9265 0001228  86.9670 273.1686 14.86635977 19984
Epoch: 2026-05-25T23:56Z
TLE epoch observation values (Epoch: 2026-05-25T23:56:34.901Z)
Latitude
-0.00009°
Longitude
-97.7963°
Altitude
611.442 km
Speed
7.553 km/s
True Right ascension
09h 39m 42s
True Declination
0° 00' 00"
Sunlit
Object was in daylight at epoch
Visualization orbit readout
Latitude
Unknown
Longitude
Unknown
Altitude
Unknown
Speed
Unknown
Apparent Right ascension
Unknown
Apparent Declination
Unknown
Sunlit
N/A
Visualization observer readout
Local Sidereal Time
05:29:11
Azimuth
Unknown
Elevation
Unknown
Doppler factor
Unknown
Orbital elements
Apogee altitude
606.341 km
Perigee altitude
604.625 km
Semi-major axis
6,983.62 km
Eccentricity
0.00012
Inclination
97.8003°
RAAN
144.9265°
Arg. of periapsis
86.967°
True anomaly
273.15455°
Mean anomaly
273.1686°
Eccentric anomaly
273.16157°
Mean motion
3.71897 °/min
Orbital period
96.8 mins
BSTAR
0.00018246
Loading maneuver chart data...
Computing Atmospheric mass density...
Loading historical data...
Loading historical data...
Loading historical data...
Loading historical data...
Loading historical data...
Loading historical data...
Loading historical data...

Documentation

Showing up to 5 results
|